Location: Charlotte
(35.2270°N, 80.8430°W)
Time: 17:05:47
(UTC-05:00)

Daily predictions for brighter satellites

Satellite Brightness Start Highest point End
(mag) Time Altitude Azimuth Time Altitude Azimuth Time Altitude Azimuth
GPS 2-05 Rocket1 3.6 18:40:42 10° SW 18:43:41 35° SSE 18:46:36 10° E
Meteor 1-20 Rocket 4.3 18:39:58 10° S 18:45:37 71° E 18:51:23 10° NNE
Cosmos 2034 Rocket 4.5 18:41:04 10° N 18:47:00 40° ENE 18:52:53 10° SSE
Envisat 4.5 18:44:17 10° ESE 18:47:23 17° ENE 18:50:29 10° NNE
Cosmos 1812 2.8 18:45:12 10° N 18:49:05 87° W 18:52:57 10° S
MOS 1 4.3 18:43:44 10° SSE 18:49:22 80° ENE 18:55:04 10° N
Cosmos 2263 Rocket 3.5 18:46:31 10° SE 18:50:05 17° E 18:53:38 10° ENE
Lacrosse 5 4.3 18:47:52 10° WNW 18:51:58 25° WSW 18:56:03 10° S
CENTAUR R/B 3.2 18:50:56 10° SW 18:56:42 56° NW 19:03:18 10° NNE
Cosmos 1975 Rocket 3.8 18:54:24 10° NNE 18:58:22 31° ENE 19:02:19 10° SE
NOAA 12 4.2 18:53:12 10° SSE 18:58:30 86° WSW 19:03:51 10° NNW
Okean 1 3.5 18:56:56 10° N 19:00:46 45° E 19:04:34 10° SSE
MOS 1-B Rocket 4.3 18:54:45 10° S 19:01:11 74° WSW 19:06:56 10° NNW
Cosmos 1602 4.1 18:58:42 10° SSE 19:02:22 40° E 19:06:02 10° NNE
Cosmos 1269 Rocket 4.0 18:59:14 10° SSW 19:04:30 84° ESE 19:09:48 10° NNE
Meteor 1-4 Rocket 3.4 19:02:09 10° SSE 19:05:06 26° E 19:08:06 10° NE
USA 32 4.0 19:02:32 10° S 19:07:43 69° E 19:12:55 10° N
Thor Agena Rocket 4.0 19:03:35 10° NNE 19:08:13 35° E 19:12:47 10° SSE
Resurs 01 Rocket 3.3 19:15:19 15° ENE 19:15:19 15° ENE 19:17:21 10° NNE
OAO 2 Rocket 3.2 19:11:47 10° W 19:16:46 89° S 19:19:59 22° E
FREGAT/IRIS 2.5 19:13:58 10° SSE 19:16:53 60° ENE 19:19:48 10° N
Cosmos 1513 Rocket 4.5 19:11:37 10° N 19:17:57 88° E 19:24:09 10° S
Cosmos 1378 Rocket 3.9 19:13:33 10° NNW 19:17:58 71° W 19:22:22 10° S
Cosmos 2227 4.2 19:12:30 10° SSW 19:18:13 84° ESE 19:23:57 10° NNE
Tiangong 2 3.4 19:17:47 10° W 19:20:19 22° SW 19:22:51 10° SSE
Meteor 1-18 Rocket 4.4 19:15:11 10° NNW 19:20:45 74° W 19:26:15 10° S
EO 1 Del DPAF 4.5 19:17:39 10° N 19:21:18 44° WNW 19:24:55 10° SW
Meteor 2-4 Rocket 4.3 19:17:10 10° NNE 19:22:18 33° ENE 19:27:18 10° SE
Iridium 4 Rocket 3.3 19:20:01 10° N 19:24:39 76° W 19:28:56 10° S
Alouette 2 Rocket 3.6 19:22:10 10° SSE 19:25:35 38° E 19:28:59 10° NNE
Cosmos 1437 Rocket 3.2 19:21:57 10° SSW 19:25:58 66° W 19:30:03 10° N
Cosmos 1782 Rocket 3.8 19:22:11 10° S 19:26:36 75° W 19:31:02 10° N
Cosmos 1536 3.6 19:25:33 10° SSE 19:34:42 - NNE 19:28:49 30° E
CZ-4C R/B 3.9 19:23:27 10° N 19:29:20 26° NE 19:31:56 22° ENE
Meteor 1-19 Rocket 4.2 19:25:34 10° N 19:31:03 59° E 19:36:32 10° SSE
Cosmos 44 Rocket 4.4 19:26:18 10° NW 19:31:11 48° WSW 19:36:06 10° S
Lacrosse 5 rocket 2.8 19:29:09 10° S 19:30:46 18° SSE 19:30:46 18° SSE
CZ-3A R/B 4.5 19:25:56 10° SW 19:32:02 46° SSE 19:49:07 22° E
Cosmos 1331 Rocket 4.3 19:29:57 10° N 19:35:00 43° ENE 19:37:34 25° ESE
Meteor 1-11 Rocket 3.7 19:30:55 10° S 19:36:23 62° E 19:42:00 10° NNE
Tsikada Rocket 4.1 19:34:59 10° S 19:41:23 83° W 19:47:50 10° N
Geosat 4.4 19:40:31 31° ENE 19:42:09 40° ESE 19:46:49 10° S
Cosmos 1943 3.7 19:39:43 10° N 19:44:55 36° ENE 19:45:39 35° E
Gbstr 26 Del rocket 4.1 19:42:19 10° W 19:45:42 32° NW 19:47:47 19° NNE
Cosmos 2251 Rocket 3.4 19:46:33 10° S 19:51:42 62° ESE 19:56:07 14° NNE
Okean 2 Rocket 3.5 19:48:35 10° SSW 19:52:55 62° W 19:57:18 10° N
ERS-2 3.7 19:53:07 10° SSW 19:56:32 36° W 19:59:58 10° NNW
ARGOS Delta rocket 3.9 19:53:15 10° N 19:57:58 71° WNW 20:02:26 10° SSW
Cosmos 2151 Rocket 3.4 19:58:02 10° S 20:02:31 83° E 20:07:00 10° N
SeaSat 1 2.4 20:04:38 60° ENE 20:04:48 60° ENE 20:09:40 10° NNW
COSMOS 2455 3.3 20:05:09 10° SW 20:11:05 62° WNW 20:17:04 10° NNE
USA 215 3.5 20:11:43 22° NE 20:16:11 68° NW 20:22:39 10° WSW
Meteor 1-23 Rocket 4.2 20:10:49 10° N 20:16:31 65° ENE 20:16:31 65° ENE
SJ-6B 4.4 20:13:33 10° SSW 20:16:59 33° W 20:20:30 10° NNW
Cosmos 1603 4.3 20:19:05 10° NNW 20:24:33 54° WSW 20:27:50 23° S
Envisat 3.7 20:21:02 10° S 20:25:57 51° W 20:30:54 10° NNW
Cosmos 2263 Rocket 2.9 20:28:04 10° SW 20:33:28 52° WNW 20:37:36 17° N
ATLAS CENTAUR R/B 3.6 20:33:17 10° NNW 20:34:39 20° NNW 20:34:39 20° NNW
Cosmos 1634 Rocket 4.4 20:36:53 10° NNW 20:42:55 58° W 20:47:12 20° SSW
USA 267 4.4 20:48:25 29° NNE 20:48:25 29° NNE 20:52:51 10° NNW
Resurs 01 Rocket 3.6 20:52:53 25° NW 20:52:53 25° NW 20:54:58 10° NNW
CZ-3C R/B 3.8 20:52:37 10° SW 21:44:49 - ESE 20:57:13 35° S
CZ-4C R/B 3.3 21:11:06 10° NW 21:17:10 62° WNW 21:17:10 62° WNW
